[[[{"header":{"parameterUnit":"kt","parameterCategory":2,"dx":1,"dy":1,"la1":30.253999710083008,"la2":30.299108505249023,"lo1":-89.0895004272461,"lo2":-89.04439544677734,"nx":28,"ny":28,"refTime":"2022-10-19T21:00:00:Z","depth":0,"parameterNumber":1,"parameterNumberName":"U-component_of_WINDS"},"data":[3.4599,3.4655,3.4675,3.475,3.4782,3.4837,3.4864,3.4901,3.4936,3.5006,3.505,3.5078,3.5123,3.5183,3.5233,3.5245,3.5265,3.527,3.5283,3.5241,3.5236,3.5232,3.5219,3.5274,3.5274,3.5323,3.5324,3.5324,3.4567,3.4597,3.4643,3.4701,3.474,3.4748,3.4796,3.4829,3.4878,3.4922,3.4967,3.5031,3.5085,3.5129,3.5186,3.5215,3.5222,3.5228,3.5226,3.5233,3.5189,3.5174,3.5221,3.5221,3.5221,3.5221,3.5221,3.5221,3.4514,3.4547,3.4593,3.4643,3.4678,3.4717,3.4753,3.4786,3.4832,3.4891,3.4908,3.4965,3.5014,3.5093,3.5125,3.5172,3.5169,3.5183,3.5187,3.5189,3.5189,3.5114,3.5183,3.5183,3.5183,3.5183,3.5183,0,3.4481,3.4496,3.454,3.4591,3.4629,3.4671,3.4713,3.4736,3.4776,3.4812,3.4867,3.4903,3.4974,3.5029,3.5087,3.5118,3.5131,3.5135,3.5144,3.5136,3.5121,3.5129,3.5055,3.5132,3.5132,3.5132,3.5132,3.5131,3.4428,3.4465,3.4523,3.4552,3.458,3.4626,3.4658,3.469,3.4723,3.4781,3.481,3.4866,3.4911,3.4998,3.5038,3.5092,3.5098,3.5125,3.5107,3.5097,3.5098,3.5095,3.5099,3.5128,3.5128,3.5129,3.5129,0,3.4397,3.443,3.4493,3.4547,3.4563,3.4599,3.4647,3.4683,3.4711,3.4764,3.4778,3.4823,3.4877,3.4913,3.4983,3.5,3.5065,3.507,3.5048,3.505,3.5078,3.5074,3.5162,3.5175,3.5118,3.5119,3.5119,0,3.4365,3.4411,3.4458,3.4492,3.4546,3.4576,3.4629,3.4658,3.4699,3.4741,3.476,3.48,3.4839,3.4884,3.491,3.4969,3.4982,3.4999,3.5005,3.4997,3.4994,3.5015,3.5012,3.5018,3.5017,3.5017,3.5016,0,3.4311,3.4391,3.4447,3.4471,3.4534,3.456,3.4588,3.4635,3.4666,3.4713,3.4734,3.4787,3.4816,3.4858,3.489,3.4875,3.4963,3.495,3.498,3.4979,3.4997,3.4995,3.5064,3.5016,3.5016,3.5016,3.5015,0,3.429,3.4334,3.4411,3.4464,3.4484,3.4522,3.4574,3.4615,3.4663,3.468,3.4718,3.4735,3.4789,3.4774,3.4849,3.4822,3.485,3.4871,3.4874,3.488,3.4861,3.4895,3.4957,3.4965,3.4887,3.4886,3.4885,0,3.422,3.4306,3.4331,3.4405,3.4449,3.4466,3.4509,3.455,3.4577,3.462,3.4651,3.47,3.4696,3.4717,3.475,3.4783,3.4819,3.478,3.4844,3.4846,3.4829,3.4887,3.4887,3.494,3.4872,3.4873,3.4874,0,3.4169,3.4243,3.4254,3.4282,3.434,3.4377,3.4427,3.4481,3.4508,3.4553,3.4595,3.4666,3.4666,3.4699,3.4719,3.4751,3.4796,3.4747,3.4748,3.4754,3.4868,3.4868,3.4877,3.4802,3.4804,3.4805,3.4864,0,3.4128,3.4175,3.4207,3.4267,3.4301,3.4348,3.4383,3.4415,3.4429,3.4456,3.452,3.4563,3.462,3.464,3.4654,3.4717,3.4712,3.4711,3.4698,3.4736,3.4756,3.4765,3.4665,3.4665,3.4665,3.4665,0,0,3.4053,3.412,3.4146,3.4194,3.4224,3.424,3.4288,3.432,3.4384,3.4405,3.4398,3.4504,3.4539,3.4614,3.4628,3.4652,3.4666,3.4651,3.4718,3.4724,3.4729,3.475,3.4758,3.4664,3.4664,3.4664,3.4664,0,3.4044,3.4077,3.4123,3.4157,3.4207,3.4233,3.4244,3.4297,3.4316,3.4378,3.4392,3.4435,3.4518,3.4554,3.4583,3.4643,3.4652,3.4659,3.4678,3.4715,3.4721,3.4726,3.4748,3.4755,3.4664,3.4664,3.4664,0,3.4,3.4038,3.4064,3.4132,3.4165,3.4211,3.4205,3.4254,3.4288,3.4305,3.4366,3.4395,3.4447,3.4512,3.4543,3.4537,3.4636,3.4612,3.4613,3.4617,3.4655,3.4662,3.4668,3.4585,3.4585,3.4584,0,0,3.3988,3.4031,3.4082,3.4133,3.4153,3.4191,3.4219,3.4235,3.4279,3.4297,3.4334,3.4378,3.4427,3.4458,3.4506,3.4572,3.4586,3.46,3.4604,3.4607,3.4612,3.4651,3.4658,3.4583,3.4583,3.4583,0,0,3.3983,3.4043,3.4048,3.4111,3.4152,3.4206,3.4236,3.4245,3.429,3.4289,3.432,3.4334,3.4395,3.4424,3.4398,3.4502,3.4488,3.4495,3.4481,3.4486,3.449,3.4481,3.4399,0,0,0,0,0,3.3991,3.4035,3.4039,3.4055,3.4142,3.4203,3.4215,3.424,3.423,3.4254,3.4286,3.4293,3.4416,3.4394,3.441,3.4438,3.4562,3.4565,3.4569,3.4566,3.4571,3.4575,0,0,0,0,0,0,3.3998,3.4016,3.4038,3.4093,3.4113,3.4202,3.419,3.4198,3.4228,3.4228,3.4286,3.4295,3.4319,3.4387,3.4402,3.4428,3.4394,3.4563,3.4566,3.4569,3.4568,3.4572,3.4575,0,0,0,0,0,3.4003,3.4018,3.415,3.4093,3.411,3.4155,3.4188,3.4195,3.4219,3.4269,3.4277,3.4235,3.4319,3.4333,3.4396,3.4421,3.4384,3.439,3.4565,3.4568,3.457,3.457,0,0,0,0,0,0,3.4006,3.4025,3.4154,3.416,3.4078,3.4151,3.4163,3.4192,3.4258,3.4267,3.4219,3.4219,3.432,3.433,3.4341,3.4417,3.4377,3.4382,3.4385,3.4567,3.4569,3.4571,0,0,0,0,0,0,3.4017,3.403,3.4157,3.4136,3.414,3.4147,3.4157,3.4215,3.4259,3.4205,3.4207,3.4218,3.4305,3.4328,3.4337,3.4426,3.4371,3.4376,3.4379,3.4381,3.4569,3.457,0,0,0,0,0,0,3.4023,3.4035,3.4135,3.4138,3.4142,3.4214,3.4198,3.4287,3.4239,3.4202,3.4236,3.4234,3.4303,3.4312,3.4334,3.442,3.4424,3.4371,3.4374,3.4377,3.4378,0,0,0,0,0,0,0,3.4028,3.3946,3.4116,3.414,3.4143,3.4218,3.422,3.4222,3.4239,3.4237,3.4236,3.4235,3.4342,3.4348,3.4353,3.4415,0,0,3.437,3.4373,0,0,0,0,0,0,0,0,3.3942,3.3945,3.4117,3.4118,3.4119,3.4219,3.422,3.4221,3.4238,3.4237,3.4236,3.4235,3.4344,3.4348,3.4353,0,0,0,0,0,0,0,0,0,0,0,0,0,0,0,3.4117,3.4118,0,3.4219,3.422,3.4221,3.4238,3.4237,3.4236,3.4236,3.4345,3.4349,3.4352,0,0,0,0,0,0,0,0,0,0,0,0,0,0,0,0,0,0,0,0,0,0,0,0,0,0,0,0,0,0,0,0,0,0,0,0,0,0,0,0,0,0,0,0,0,0,0,0,0,0,0,0,0,0,0,0,0,0,0,0,0,0,0,0,0,0,0,0,0]}],[{"header":{"parameterUnit":"kt","parameterCategory":2,"dx":1,"dy":1,"la1":30.253999710083008,"la2":30.299108505249023,"lo1":-89.0895004272461,"lo2":-89.04439544677734,"nx":28,"ny":28,"refTime":"2022-10-19T21:00:00:Z","depth":0,"parameterNumber":2,"parameterNumberName":"V-component_of_WINDS"},"data":[0.8379,0.8354,0.8339,0.8302,0.8282,0.8254,0.8239,0.8217,0.8196,0.8158,0.8134,0.8116,0.8087,0.8053,0.8024,0.8016,0.8004,0.8004,0.7995,0.8009,0.801,0.801,0.8015,0.8003,0.8002,0.7981,0.7981,0.7981,0.8384,0.8365,0.8342,0.831,0.829,0.828,0.8253,0.8236,0.821,0.8185,0.8161,0.8127,0.8097,0.8069,0.8038,0.8023,0.8015,0.8015,0.8015,0.801,0.8025,0.8031,0.8021,0.8021,0.8021,0.8021,0.8021,0.8021,0.8389,0.8375,0.8348,0.8323,0.8303,0.8282,0.8265,0.8244,0.8221,0.8189,0.8177,0.8147,0.8118,0.8075,0.8057,0.8032,0.803,0.8024,0.8022,0.8021,0.802,0.8046,0.8026,0.8026,0.8026,0.8026,0.8026,0,0.8387,0.8376,0.8355,0.8329,0.831,0.8289,0.8266,0.8256,0.8228,0.821,0.8183,0.8164,0.8127,0.8098,0.8067,0.8049,0.8037,0.8035,0.803,0.8035,0.8041,0.8034,0.8056,0.8036,0.8036,0.8036,0.8036,0.8036,0.8389,0.8376,0.8342,0.8329,0.8314,0.8293,0.8278,0.8255,0.8239,0.8207,0.8196,0.8168,0.8145,0.8102,0.8078,0.805,0.8043,0.8036,0.8039,0.8043,0.804,0.804,0.8037,0.8036,0.8036,0.8036,0.8036,0,0.839,0.8369,0.8345,0.8314,0.8305,0.8292,0.8264,0.825,0.8232,0.8209,0.8202,0.8174,0.8148,0.8125,0.8091,0.8079,0.8051,0.8047,0.8059,0.8056,0.8046,0.8046,0.8021,0.8015,0.8031,0.8031,0.8031,0,0.8383,0.8367,0.8336,0.8324,0.8304,0.8283,0.8264,0.8248,0.8225,0.8207,0.8191,0.8174,0.8148,0.8127,0.811,0.8084,0.8079,0.8067,0.8063,0.8068,0.8069,0.8058,0.8057,0.8057,0.8057,0.8057,0.8058,0,0.8386,0.8353,0.8333,0.8322,0.8288,0.8278,0.8264,0.824,0.8225,0.8203,0.8192,0.8168,0.8154,0.8134,0.8113,0.8115,0.8082,0.8081,0.807,0.807,0.8063,0.8064,0.8048,0.8058,0.8058,0.8058,0.8058,0,0.8377,0.8357,0.8332,0.8302,0.8295,0.8282,0.8257,0.8241,0.8216,0.8206,0.8188,0.8175,0.8154,0.8153,0.8121,0.813,0.8116,0.8104,0.8103,0.8099,0.8099,0.809,0.808,0.8077,0.8095,0.8095,0.8095,0,0.8384,0.8355,0.8338,0.8315,0.8298,0.8281,0.8266,0.8246,0.8231,0.8213,0.8196,0.8176,0.8172,0.8163,0.815,0.8131,0.812,0.8133,0.8103,0.8102,0.8107,0.8098,0.8101,0.8085,0.8099,0.8099,0.8099,0,0.8388,0.835,0.8348,0.8334,0.8307,0.8294,0.8277,0.8254,0.8243,0.8225,0.8208,0.8182,0.8176,0.8163,0.8151,0.8139,0.8127,0.8135,0.8134,0.8131,0.8101,0.8103,0.8101,0.8121,0.812,0.812,0.8102,0,0.8373,0.8358,0.8351,0.8325,0.8312,0.8299,0.8278,0.8266,0.8256,0.8241,0.8219,0.8199,0.8176,0.8169,0.816,0.8141,0.8141,0.8136,0.8134,0.8129,0.8122,0.812,0.8145,0.8145,0.8145,0.8145,0,0,0.8384,0.8363,0.8347,0.8332,0.832,0.8304,0.8291,0.8277,0.8251,0.8242,0.8241,0.8202,0.8187,0.8161,0.8158,0.8151,0.8144,0.8148,0.8132,0.8131,0.813,0.8123,0.8121,0.8145,0.8145,0.8145,0.8145,0,0.8375,0.8363,0.8351,0.8337,0.8315,0.8301,0.8298,0.8274,0.8265,0.8245,0.8232,0.8217,0.8189,0.8172,0.816,0.815,0.8141,0.8146,0.8146,0.8132,0.8131,0.813,0.8123,0.8121,0.8144,0.8144,0.8144,0,0.8374,0.8357,0.835,0.8325,0.8311,0.8296,0.8289,0.8275,0.8262,0.8247,0.8228,0.8215,0.8193,0.8174,0.8165,0.8164,0.8139,0.8145,0.8146,0.8144,0.8129,0.8128,0.8127,0.8141,0.8141,0.8141,0,0,0.8368,0.8355,0.8332,0.8322,0.8314,0.8294,0.8285,0.8274,0.8256,0.8249,0.8233,0.8215,0.8197,0.8187,0.817,0.8153,0.8145,0.8146,0.8146,0.8146,0.8144,0.813,0.8129,0.8142,0.8142,0.8142,0,0,0.8366,0.8338,0.8331,0.8318,0.8302,0.8278,0.8272,0.8263,0.8246,0.8246,0.8227,0.8222,0.8204,0.8192,0.8198,0.8168,0.8167,0.8165,0.8177,0.8177,0.8177,0.8179,0.8188,0,0,0,0,0,0.8347,0.8341,0.8336,0.8331,0.83,0.8281,0.8276,0.8261,0.826,0.8255,0.8239,0.8231,0.8191,0.8195,0.819,0.8184,0.8145,0.8144,0.8144,0.8155,0.8155,0.8155,0,0,0,0,0,0,0.8345,0.8339,0.8336,0.8312,0.8305,0.8281,0.8274,0.827,0.826,0.8258,0.8234,0.823,0.8217,0.8197,0.8192,0.8187,0.8189,0.8145,0.8144,0.8144,0.8155,0.8155,0.8155,0,0,0,0,0,0.8343,0.8338,0.8294,0.8312,0.8306,0.8284,0.8274,0.8271,0.8262,0.8239,0.8235,0.8252,0.8217,0.8212,0.8194,0.8189,0.8192,0.819,0.8144,0.8144,0.8144,0.8155,0,0,0,0,0,0,0.8342,0.8334,0.8293,0.829,0.8313,0.8285,0.828,0.8271,0.8244,0.824,0.8256,0.8255,0.8217,0.8213,0.821,0.8191,0.8194,0.8193,0.8192,0.8144,0.8144,0.8144,0,0,0,0,0,0,0.8337,0.8332,0.8291,0.8294,0.8292,0.8286,0.8282,0.8265,0.8244,0.8262,0.8261,0.8256,0.8222,0.8214,0.8211,0.8186,0.8196,0.8195,0.8194,0.8193,0.8144,0.8144,0,0,0,0,0,0,0.8334,0.8331,0.8295,0.8293,0.8291,0.8262,0.8271,0.824,0.8247,0.8264,0.8247,0.8247,0.8223,0.822,0.8213,0.8188,0.8186,0.8196,0.8195,0.8194,0.8194,0,0,0,0,0,0,0,0.8333,0.8362,0.8307,0.8292,0.829,0.8267,0.8266,0.8266,0.8247,0.8247,0.8247,0.8247,0.8205,0.8204,0.8202,0.819,0,0,0.8196,0.8196,0,0,0,0,0,0,0,0,0.8363,0.8362,0.8307,0.8307,0.8306,0.8267,0.8267,0.8266,0.8247,0.8247,0.8247,0.8247,0.8205,0.8203,0.8202,0,0,0,0,0,0,0,0,0,0,0,0,0,0,0,0.8307,0.8307,0,0.8267,0.8267,0.8266,0.8247,0.8247,0.8247,0.8247,0.8204,0.8203,0.8202,0,0,0,0,0,0,0,0,0,0,0,0,0,0,0,0,0,0,0,0,0,0,0,0,0,0,0,0,0,0,0,0,0,0,0,0,0,0,0,0,0,0,0,0,0,0,0,0,0,0,0,0,0,0,0,0,0,0,0,0,0,0,0,0,0,0,0,0,0]}]]]